Location: PSU-Greenbush Astrophysical Observatory
(37.5140°N, 94.9880°W)
Time: 16:22:08
(UTC-05:00)

BEESAT - Pass Details

Date: 26 February 2020
Orbit: 700 x 709 km, 98.6° (Epoch: 05 April)

Event Time Altitude Azimuth Distance (km) Brightness Sun altitude
Rises 04:16:19 0° 131° (SE) 3,087 ? -32.2°
Reaches altitude 10° 04:18:59 10° 116° (ESE) 2,171 ? -31.7°
Maximum altitude 04:22:36 22° 67° (ENE) 1,516 ? -31.0°
Drops below altitude 10° 04:26:14 10° 17° (NNE) 2,178 ? -30.3°
Sets 04:28:54 0° 3° (N) 3,099 ? -29.8°
